Location: Beaver Brook Trail
(44.0290°N, 71.8137°W)
Time: 23:56:02
(UTC+00:00)

Altair - Pass Details

Date: 07 November 2024
Orbit: 1501 x 1683 km, 47.2° (Epoch: 03 December)

Event Time Altitude Azimuth Distance (km) Brightness Sun altitude
Rises 23:25:27 0° 294° (WNW) 4,651 11.1 -21.2°
Reaches altitude 10° 23:28:38 10° 288° (WNW) 3,680 10.5 -21.7°
Maximum altitude 23:37:06 42° 222° (SW) 2,093 8.5 -23.3°
Drops below altitude 10° 23:45:49 10° 156° (SSE) 3,782 9.3 -24.8°
Enters shadow 23:47:52 - 151° (SSE) 4,390 9.6 -25.2°
